Time,TemperatureF,DewpointF,PressureIn,WindDirection,WindDirectionDegrees,WindSpeedMPH,WindSpeedGustMPH,Humidity,HourlyPrecipIn,Conditions,Clouds,dailyrainin,SoftwareType,DateUTC
2013-04-17 00:00:00,74.1,69.3,29.78,SSE,149,12.0,15.0,85,0.00,,,0.00,VWS V13.01,2013-04-17 05:00:00,
2013-04-17 00:01:00,74.1,69.3,29.78,SE,146,11.0,15.0,85,0.00,,,0.00,VWS V13.01,2013-04-17 05:01:00,
2013-04-17 00:06:00,74.0,69.6,29.78,SSE,153,6.0,12.0,86,0.00,,,0.00,VWS V13.01,2013-04-17 05:06:00,
2013-04-17 00:10:00,73.8,69.4,29.78,SE,142,0.0,16.0,86,0.00,,,0.00,VWS V13.01,2013-04-17 05:10:00,
2013-04-17 00:11:00,73.8,69.3,29.78,SSE,167,4.0,14.0,86,0.00,,,0.00,VWS V13.01,2013-04-17 05:11:00,
2013-04-17 00:16:00,73.7,69.6,29.79,SE,133,0.0,14.0,87,0.00,,,0.00,VWS V13.01,2013-04-17 05:16:00,
2013-04-17 00:20:00,73.6,69.5,29.79,SSE,150,7.0,14.0,87,0.00,,,0.00,VWS V13.01,2013-04-17 05:20:00,
2013-04-17 00:22:00,73.6,69.5,29.79,SE,146,4.0,7.0,87,0.00,,,0.00,VWS V13.01,2013-04-17 05:22:00,
2013-04-17 00:27:00,73.5,69.7,29.79,SSE,157,7.0,14.0,88,0.00,,,0.00,VWS V13.01,2013-04-17 05:27:00,
2013-04-17 00:30:00,73.4,69.6,29.78,SSE,159,6.0,15.0,88,0.00,,,0.00,VWS V13.01,2013-04-17 05:30:00,
2013-04-17 00:32:00,73.3,69.9,29.78,SE,146,3.0,8.0,89,0.00,,,0.00,VWS V13.01,2013-04-17 05:32:00,
2013-04-17 00:37:00,73.2,69.8,29.78,SSE,164,8.0,9.0,89,0.00,,,0.00,VWS V13.01,2013-04-17 05:37:00,
2013-04-17 00:40:00,73.2,69.8,29.78,SE,144,8.0,9.0,89,0.00,,,0.00,VWS V13.01,2013-04-17 05:40:00,
2013-04-17 00:42:00,73.1,69.7,29.78,SSE,148,5.0,9.0,89,0.00,,,0.00,VWS V13.01,2013-04-17 05:42:00,
2013-04-17 00:47:00,73.1,70.0,29.79,SSE,153,4.0,9.0,90,0.00,,,0.00,VWS V13.01,2013-04-17 05:47:00,
2013-04-17 00:50:00,73.1,70.0,29.79,SSE,161,4.0,9.0,90,0.00,,,0.00,VWS V13.01,2013-04-17 05:50:00,
2013-04-17 00:52:00,73.0,69.9,29.79,SSE,148,5.0,9.0,90,0.00,,,0.00,VWS V13.01,2013-04-17 05:52:00,
2013-04-17 00:57:00,73.0,69.9,29.79,SSE,149,7.0,10.0,90,0.00,,,0.00,VWS V13.01,2013-04-17 05:57:00,
2013-04-17 01:00:00,73.0,70.2,29.78,SE,145,4.0,11.0,91,0.00,,,0.00,VWS V13.01,2013-04-17 06:00:00,
2013-04-17 01:02:00,73.0,70.2,29.78,SE,144,13.0,13.0,91,0.00,,,0.00,VWS V13.01,2013-04-17 06:02:00,
2013-04-17 01:07:00,72.9,70.1,29.78,SE,137,4.0,13.0,91,0.00,,,0.00,VWS V13.01,2013-04-17 06:07:00,
2013-04-17 01:10:00,72.9,70.1,29.78,SE,145,4.0,13.0,91,0.00,,,0.00,VWS V13.01,2013-04-17 06:10:00,
2013-04-17 01:12:00,72.9,70.1,29.78,SE,145,0.0,5.0,91,0.00,,,0.00,VWS V13.01,2013-04-17 06:12:00,
2013-04-17 01:17:00,72.9,70.1,29.78,SE,128,8.0,11.0,91,0.00,,,0.00,VWS V13.01,2013-04-17 06:17:00,
2013-04-17 01:20:00,72.9,70.4,29.78,SSE,168,2.0,11.0,92,0.00,,,0.00,VWS V13.01,2013-04-17 06:20:00,
2013-04-17 01:22:00,72.9,70.4,29.78,SSE,166,6.0,8.0,92,0.00,,,0.00,VWS V13.01,2013-04-17 06:22:00,
2013-04-17 01:27:00,72.8,70.3,29.78,SSE,157,2.0,11.0,92,0.00,,,0.00,VWS V13.01,2013-04-17 06:27:00,
2013-04-17 01:30:00,72.8,70.3,29.78,SSE,163,9.0,12.0,92,0.00,,,0.00,VWS V13.01,2013-04-17 06:30:00,
2013-04-17 01:32:00,72.8,70.3,29.78,SSE,161,0.0,11.0,92,0.00,,,0.00,VWS V13.01,2013-04-17 06:32:00,
2013-04-17 01:37:00,72.8,70.3,29.78,SSE,149,8.0,11.0,92,0.00,,,0.00,VWS V13.01,2013-04-17 06:37:00,
2013-04-17 01:40:00,72.8,70.3,29.78,SSE,155,5.0,11.0,92,0.00,,,0.00,VWS V13.01,2013-04-17 06:40:00,
2013-04-17 01:42:00,72.8,70.3,29.78,SSE,149,5.0,9.0,92,0.00,,,0.00,VWS V13.01,2013-04-17 06:42:00,
2013-04-17 01:47:00,72.8,70.3,29.78,South,169,5.0,13.0,92,0.00,,,0.00,VWS V13.01,2013-04-17 06:47:00,
2013-04-17 01:50:00,72.8,70.3,29.78,SSE,165,6.0,13.0,92,0.00,,,0.00,VWS V13.01,2013-04-17 06:50:00,
2013-04-17 01:52:00,72.8,70.3,29.78,SSE,166,0.0,6.0,92,0.00,,,0.00,VWS V13.01,2013-04-17 06:52:00,
2013-04-17 01:57:00,72.9,70.8,29.78,SSE,156,0.0,16.0,93,0.00,,,0.00,VWS V13.01,2013-04-17 06:57:00,
2013-04-17 02:00:00,72.9,70.8,29.79,SSE,159,5.0,16.0,93,0.00,,,0.00,VWS V13.01,2013-04-17 07:00:00,
2013-04-17 02:02:00,72.9,70.8,29.79,SSE,157,12.0,12.0,93,0.00,,,0.00,VWS V13.01,2013-04-17 07:02:00,
2013-04-17 02:07:00,72.9,70.8,29.79,SSE,163,6.0,13.0,93,0.00,,,0.00,VWS V13.01,2013-04-17 07:07:00,
2013-04-17 02:10:00,72.9,70.8,29.79,SSE,163,0.0,13.0,93,0.00,,,0.00,VWS V13.01,2013-04-17 07:10:00,
2013-04-17 02:12:00,72.8,70.7,29.79,SSE,163,1.0,6.0,93,0.00,,,0.00,VWS V13.01,2013-04-17 07:12:00,
2013-04-17 02:17:00,72.8,70.3,29.79,South,182,0.0,10.0,92,0.00,,,0.00,VWS V13.01,2013-04-17 07:17:00,
2013-04-17 02:20:00,72.8,70.3,29.79,South,175,1.0,10.0,92,0.00,,,0.00,VWS V13.01,2013-04-17 07:20:00,
2013-04-17 02:22:00,72.9,70.4,29.79,South,173,8.0,10.0,92,0.00,,,0.00,VWS V13.01,2013-04-17 07:22:00,
2013-04-17 02:27:00,72.9,70.4,29.79,SSE,157,9.0,10.0,92,0.00,,,0.00,VWS V13.01,2013-04-17 07:27:00,
2013-04-17 02:30:00,72.9,70.4,29.78,South,172,8.0,13.0,92,0.00,,,0.00,VWS V13.01,2013-04-17 07:30:00,
2013-04-17 02:32:00,73.0,70.5,29.78,South,171,9.0,11.0,92,0.00,,,0.00,VWS V13.01,2013-04-17 07:32:00,
2013-04-17 02:37:00,73.1,70.3,29.78,SSE,162,4.0,15.0,91,0.00,,,0.00,VWS V13.01,2013-04-17 07:37:00,
2013-04-17 02:40:00,73.1,70.3,29.78,SSE,161,8.0,15.0,91,0.00,,,0.00,VWS V13.01,2013-04-17 07:40:00,
2013-04-17 02:42:00,73.2,70.4,29.78,SSE,160,0.0,9.0,91,0.00,,,0.00,VWS V13.01,2013-04-17 07:42:00,
2013-04-17 02:47:00,73.3,70.2,29.78,SSE,157,4.0,14.0,90,0.00,,,0.00,VWS V13.01,2013-04-17 07:47:00,
2013-04-17 02:50:00,73.3,70.2,29.78,SSE,157,7.0,14.0,90,0.00,,,0.00,VWS V13.01,2013-04-17 07:50:00,
2013-04-17 02:52:00,73.3,70.2,29.78,SSE,157,2.0,10.0,90,0.00,,,0.00,VWS V13.01,2013-04-17 07:52:00,
2013-04-17 02:57:00,73.4,70.3,29.78,SSE,148,10.0,13.0,90,0.00,,,0.00,VWS V13.01,2013-04-17 07:57:00,
2013-04-17 03:00:00,73.5,70.4,29.77,South,186,4.0,16.0,90,0.00,,,0.00,VWS V13.01,2013-04-17 08:00:00,
2013-04-17 03:02:00,73.5,70.1,29.77,South,186,0.0,4.0,89,0.00,,,0.00,VWS V13.01,2013-04-17 08:02:00,
2013-04-17 03:07:00,73.6,70.2,29.77,South,177,0.0,10.0,89,0.00,,,0.00,VWS V13.01,2013-04-17 08:07:00,
2013-04-17 03:10:00,73.6,70.2,29.77,South,171,8.0,13.0,89,0.00,,,0.00,VWS V13.01,2013-04-17 08:10:00,
2013-04-17 03:12:00,73.6,70.2,29.77,South,171,6.0,9.0,89,0.00,,,0.00,VWS V13.01,2013-04-17 08:12:00,
2013-04-17 03:17:00,73.7,70.3,29.76,South,171,3.0,11.0,89,0.00,,,0.00,VWS V13.01,2013-04-17 08:17:00,
2013-04-17 03:20:00,73.6,69.8,29.76,SSE,163,9.0,16.0,88,0.00,,,0.00,VWS V13.01,2013-04-17 08:20:00,
2013-04-17 03:22:00,73.6,69.8,29.76,SSE,163,6.0,9.0,88,0.00,,,0.00,VWS V13.01,2013-04-17 08:22:00,
2013-04-17 03:27:00,73.6,69.8,29.76,SSE,163,5.0,10.0,88,0.00,,,0.00,VWS V13.01,2013-04-17 08:27:00,
2013-04-17 03:30:00,73.6,69.8,29.76,SSE,163,5.0,15.0,88,0.00,,,0.00,VWS V13.01,2013-04-17 08:30:00,
2013-04-17 03:32:00,73.6,69.8,29.76,SSE,161,10.0,13.0,88,0.00,,,0.00,VWS V13.01,2013-04-17 08:32:00,
2013-04-17 03:37:00,73.6,69.8,29.76,SSE,157,8.0,13.0,88,0.00,,,0.00,VWS V13.01,2013-04-17 08:37:00,
2013-04-17 03:40:00,73.6,69.8,29.76,SSE,164,4.0,13.0,88,0.00,,,0.00,VWS V13.01,2013-04-17 08:40:00,
2013-04-17 03:42:00,73.6,69.8,29.76,South,173,10.0,14.0,88,0.00,,,0.00,VWS V13.01,2013-04-17 08:42:00,
2013-04-17 03:47:00,73.6,69.8,29.76,South,173,4.0,14.0,88,0.00,,,0.00,VWS V13.01,2013-04-17 08:47:00,
2013-04-17 03:50:00,73.6,69.8,29.76,South,172,10.0,14.0,88,0.00,,,0.00,VWS V13.01,2013-04-17 08:50:00,
2013-04-17 03:52:00,73.6,69.8,29.76,SSE,165,11.0,12.0,88,0.00,,,0.00,VWS V13.01,2013-04-17 08:52:00,
2013-04-17 03:57:00,73.5,69.7,29.76,SSE,164,3.0,13.0,88,0.00,,,0.00,VWS V13.01,2013-04-17 08:57:00,
2013-04-17 04:00:00,73.5,69.7,29.75,South,187,6.0,13.0,88,0.00,,,0.00,VWS V13.01,2013-04-17 09:00:00,
2013-04-17 04:02:00,73.5,69.7,29.75,South,176,1.0,10.0,88,0.00,,,0.00,VWS V13.01,2013-04-17 09:02:00,
2013-04-17 04:07:00,73.5,69.7,29.75,South,171,6.0,12.0,88,0.00,,,0.00,VWS V13.01,2013-04-17 09:07:00,
2013-04-17 04:10:00,73.5,69.7,29.75,SSE,167,1.0,14.0,88,0.00,,,0.00,VWS V13.01,2013-04-17 09:10:00,
2013-04-17 04:12:00,73.5,69.7,29.75,South,169,7.0,16.0,88,0.00,,,0.00,VWS V13.01,2013-04-17 09:12:00,
2013-04-17 04:17:00,73.5,69.7,29.75,SSE,152,4.0,16.0,88,0.00,,,0.00,VWS V13.01,2013-04-17 09:17:00,
2013-04-17 04:20:00,73.4,69.6,29.75,SSE,159,6.0,16.0,88,0.00,,,0.00,VWS V13.01,2013-04-17 09:20:00,
2013-04-17 04:22:00,73.4,69.6,29.75,SSE,159,5.0,11.0,88,0.00,,,0.00,VWS V13.01,2013-04-17 09:22:00,
2013-04-17 04:28:00,73.4,69.6,29.75,SSE,156,7.0,14.0,88,0.00,,,0.00,VWS V13.01,2013-04-17 09:28:00,
2013-04-17 04:30:00,73.4,69.6,29.76,SSE,156,8.0,14.0,88,0.00,,,0.00,VWS V13.01,2013-04-17 09:30:00,
2013-04-17 04:33:00,73.4,69.6,29.76,SSE,157,5.0,11.0,88,0.00,,,0.00,VWS V13.01,2013-04-17 09:33:00,
2013-04-17 04:37:00,73.4,69.6,29.76,SSE,156,3.0,13.0,88,0.00,,,0.00,VWS V13.01,2013-04-17 09:37:00,
2013-04-17 04:40:00,73.3,69.5,29.76,SSE,163,10.0,16.0,88,0.00,,,0.00,VWS V13.01,2013-04-17 09:40:00,
2013-04-17 04:42:00,73.3,69.5,29.76,SSE,157,4.0,12.0,88,0.00,,,0.00,VWS V13.01,2013-04-17 09:42:00,
2013-04-17 04:48:00,73.3,69.5,29.75,SSE,153,8.0,12.0,88,0.00,,,0.00,VWS V13.01,2013-04-17 09:48:00,
2013-04-17 04:50:00,73.3,69.5,29.75,SSE,150,4.0,15.0,88,0.00,,,0.00,VWS V13.01,2013-04-17 09:50:00,
2013-04-17 04:53:00,73.3,69.5,29.75,SSE,150,3.0,9.0,88,0.00,,,0.00,VWS V13.01,2013-04-17 09:53:00,
2013-04-17 04:58:00,73.3,69.5,29.75,SSE,148,10.0,12.0,88,0.00,,,0.00,VWS V13.01,2013-04-17 09:58:00,
2013-04-17 05:00:00,73.3,69.2,29.75,SSE,163,6.0,14.0,87,0.00,,,0.00,VWS V13.01,2013-04-17 10:00:00,
2013-04-17 05:03:00,73.3,69.2,29.75,SSE,162,3.0,11.0,87,0.00,,,0.00,VWS V13.01,2013-04-17 10:03:00,
2013-04-17 05:08:00,73.3,69.2,29.75,South,184,5.0,15.0,87,0.00,,,0.00,VWS V13.01,2013-04-17 10:08:00,
2013-04-17 05:10:00,73.3,69.2,29.75,South,170,7.0,15.0,87,0.00,,,0.00,VWS V13.01,2013-04-17 10:10:00,
2013-04-17 05:13:00,73.3,69.2,29.75,South,170,3.0,9.0,87,0.00,,,0.00,VWS V13.01,2013-04-17 10:13:00,
2013-04-17 05:18:00,73.3,69.2,29.75,SSE,164,6.0,11.0,87,0.00,,,0.00,VWS V13.01,2013-04-17 10:18:00,
2013-04-17 05:20:00,73.3,69.2,29.75,SSE,164,10.0,11.0,87,0.00,,,0.00,VWS V13.01,2013-04-17 10:20:00,
2013-04-17 05:23:00,73.3,69.2,29.75,SSE,164,2.0,10.0,87,0.00,,,0.00,VWS V13.01,2013-04-17 10:23:00,
2013-04-17 05:28:00,73.3,69.2,29.75,SSE,163,7.0,13.0,87,0.00,,,0.00,VWS V13.01,2013-04-17 10:28:00,
2013-04-17 05:30:00,73.3,69.2,29.76,SSE,163,0.0,13.0,87,0.00,,,0.00,VWS V13.01,2013-04-17 10:30:00,
2013-04-17 05:33:00,73.2,69.1,29.76,SSE,163,0.0,10.0,87,0.00,,,0.00,VWS V13.01,2013-04-17 10:33:00,
2013-04-17 05:38:00,73.2,69.1,29.76,SSE,161,7.0,14.0,87,0.00,,,0.00,VWS V13.01,2013-04-17 10:38:00,
2013-04-17 05:40:00,73.2,69.1,29.76,SSE,156,8.0,14.0,87,0.00,,,0.00,VWS V13.01,2013-04-17 10:40:00,
2013-04-17 05:43:00,73.2,69.1,29.76,SSE,152,10.0,13.0,87,0.00,,,0.00,VWS V13.01,2013-04-17 10:43:00,
2013-04-17 05:48:00,73.2,69.1,29.75,SSE,156,3.0,15.0,87,0.00,,,0.00,VWS V13.01,2013-04-17 10:48:00,
2013-04-17 05:50:00,73.2,69.1,29.75,SSE,155,0.0,15.0,87,0.00,,,0.00,VWS V13.01,2013-04-17 10:50:00,
2013-04-17 05:53:00,73.2,69.1,29.75,SSE,154,9.0,13.0,87,0.00,,,0.00,VWS V13.01,2013-04-17 10:53:00,
2013-04-17 05:58:00,73.2,68.8,29.75,South,173,5.0,14.0,86,0.00,,,0.00,VWS V13.01,2013-04-17 10:58:00,
2013-04-17 06:00:00,73.2,68.8,29.75,South,172,0.0,16.0,86,0.00,,,0.00,VWS V13.01,2013-04-17 11:00:00,
2013-04-17 06:03:00,73.2,68.8,29.75,South,172,4.0,10.0,86,0.00,,,0.00,VWS V13.01,2013-04-17 11:03:00,
2013-04-17 06:08:00,73.2,68.8,29.75,SSE,168,1.0,12.0,86,0.00,,,0.00,VWS V13.01,2013-04-17 11:08:00,
2013-04-17 06:10:00,73.2,68.8,29.75,SSE,164,5.0,12.0,86,0.00,,,0.00,VWS V13.01,2013-04-17 11:10:00,
2013-04-17 06:13:00,73.1,68.7,29.75,SSE,160,6.0,15.0,86,0.00,,,0.00,VWS V13.01,2013-04-17 11:13:00,
2013-04-17 06:18:00,73.1,68.7,29.76,SSE,159,8.0,15.0,86,0.00,,,0.00,VWS V13.01,2013-04-17 11:18:00,
2013-04-17 06:20:00,73.1,68.7,29.76,South,173,4.0,15.0,86,0.00,,,0.00,VWS V13.01,2013-04-17 11:20:00,
2013-04-17 06:23:00,73.1,68.7,29.76,SSE,167,1.0,14.0,86,0.00,,,0.00,VWS V13.01,2013-04-17 11:23:00,
2013-04-17 06:28:00,73.1,68.7,29.76,South,185,6.0,18.0,86,0.00,,,0.00,VWS V13.01,2013-04-17 11:28:00,
2013-04-17 06:30:00,73.1,68.7,29.76,SSW,200,9.0,18.0,86,0.00,,,0.00,VWS V13.01,2013-04-17 11:30:00,
2013-04-17 06:33:00,73.1,68.7,29.76,South,173,4.0,10.0,86,0.00,,,0.00,VWS V13.01,2013-04-17 11:33:00,
2013-04-17 06:38:00,73.1,68.7,29.76,SSW,207,16.0,16.0,86,0.00,,,0.00,VWS V13.01,2013-04-17 11:38:00,
2013-04-17 06:40:00,73.1,68.3,29.76,SSW,195,9.0,16.0,85,0.00,,,0.00,VWS V13.01,2013-04-17 11:40:00,
2013-04-17 06:43:00,73.1,68.7,29.76,South,190,3.0,11.0,86,0.00,,,0.00,VWS V13.01,2013-04-17 11:43:00,
2013-04-17 06:48:00,73.1,68.3,29.76,SE,145,4.0,14.0,85,0.00,,,0.00,VWS V13.01,2013-04-17 11:48:00,
2013-04-17 06:50:00,73.1,68.3,29.76,SSW,196,0.0,14.0,85,0.00,,,0.00,VWS V13.01,2013-04-17 11:50:00,
2013-04-17 06:53:00,73.1,68.3,29.76,SE,128,4.0,18.0,85,0.00,,,0.00,VWS V13.01,2013-04-17 11:53:00,
2013-04-17 06:58:00,73.1,68.3,29.76,SSE,155,9.0,18.0,85,0.00,,,0.00,VWS V13.01,2013-04-17 11:58:00,
2013-04-17 07:00:00,73.1,68.3,29.76,SW,218,7.0,19.0,85,0.00,,,0.00,VWS V13.01,2013-04-17 12:00:00,
2013-04-17 07:03:00,73.1,68.3,29.76,SE,146,6.0,15.0,85,0.00,,,0.00,VWS V13.01,2013-04-17 12:03:00,
2013-04-17 07:08:00,73.1,68.3,29.76,SSW,197,9.0,15.0,85,0.00,,,0.00,VWS V13.01,2013-04-17 12:08:00,
2013-04-17 07:10:00,73.1,68.3,29.76,South,172,13.0,15.0,85,0.00,,,0.00,VWS V13.01,2013-04-17 12:10:00,
2013-04-17 07:14:00,73.1,68.3,29.76,South,184,6.0,15.0,85,0.00,,,0.00,VWS V13.01,2013-04-17 12:14:00,
2013-04-17 07:19:00,73.1,68.3,29.76,SSE,150,3.0,15.0,85,0.00,,,0.00,VWS V13.01,2013-04-17 12:19:00,
2013-04-17 07:20:00,73.1,68.3,29.76,SSW,195,10.0,15.0,85,0.00,,,0.00,VWS V13.01,2013-04-17 12:20:00,
2013-04-17 07:24:00,73.0,68.2,29.76,SW,217,0.0,11.0,85,0.00,,,0.00,VWS V13.01,2013-04-17 12:24:00,
2013-04-17 07:29:00,73.0,68.2,29.76,South,180,8.0,16.0,85,0.00,,,0.00,VWS V13.01,2013-04-17 12:29:00,
2013-04-17 07:30:00,73.0,68.2,29.77,SSE,159,0.0,16.0,85,0.00,,,0.00,VWS V13.01,2013-04-17 12:30:00,
2013-04-17 07:34:00,73.0,68.2,29.77,SSE,157,0.0,14.0,85,0.00,,,0.00,VWS V13.01,2013-04-17 12:34:00,
2013-04-17 07:39:00,73.0,68.2,29.77,South,171,12.0,18.0,85,0.00,,,0.00,VWS V13.01,2013-04-17 12:39:00,
2013-04-17 07:40:00,73.0,68.2,29.77,South,179,12.0,18.0,85,0.00,,,0.00,VWS V13.01,2013-04-17 12:40:00,
2013-04-17 07:44:00,73.0,68.2,29.77,SE,146,8.0,17.0,85,0.00,,,0.00,VWS V13.01,2013-04-17 12:44:00,
2013-04-17 07:49:00,73.0,67.9,29.77,SW,233,0.0,17.0,84,0.00,,,0.00,VWS V13.01,2013-04-17 12:49:00,
2013-04-17 07:50:00,73.0,67.9,29.77,South,172,0.0,17.0,84,0.00,,,0.00,VWS V13.01,2013-04-17 12:50:00,
2013-04-17 07:54:00,73.0,67.9,29.77,SSE,147,4.0,13.0,84,0.00,,,0.00,VWS V13.01,2013-04-17 12:54:00,
2013-04-17 07:59:00,72.9,67.8,29.77,SSE,152,7.0,19.0,84,0.00,,,0.00,VWS V13.01,2013-04-17 12:59:00,
2013-04-17 08:00:00,72.9,67.8,29.76,SSE,153,6.0,19.0,84,0.00,,,0.00,VWS V13.01,2013-04-17 13:00:00,
2013-04-17 08:04:00,72.9,67.8,29.76,SSE,165,2.0,14.0,84,0.00,,,0.00,VWS V13.01,2013-04-17 13:04:00,
2013-04-17 08:09:00,72.9,67.8,29.76,SSE,149,0.0,18.0,84,0.00,,,0.00,VWS V13.01,2013-04-17 13:09:00,
2013-04-17 08:10:00,73.0,67.9,29.76,SE,134,12.0,18.0,84,0.00,,,0.00,VWS V13.01,2013-04-17 13:10:00,
2013-04-17 08:14:00,73.0,67.9,29.76,SSE,165,8.0,12.0,84,0.00,,,0.00,VWS V13.01,2013-04-17 13:14:00,
2013-04-17 08:19:00,73.0,67.9,29.76,SSE,159,4.0,15.0,84,0.00,,,0.00,VWS V13.01,2013-04-17 13:19:00,
2013-04-17 08:20:00,73.0,67.9,29.76,South,180,9.0,15.0,84,0.00,,,0.00,VWS V13.01,2013-04-17 13:20:00,
2013-04-17 08:24:00,73.0,67.9,29.76,South,173,4.0,14.0,84,0.00,,,0.00,VWS V13.01,2013-04-17 13:24:00,
2013-04-17 08:29:00,73.1,68.0,29.76,South,179,2.0,14.0,84,0.00,,,0.00,VWS V13.01,2013-04-17 13:29:00,
2013-04-17 08:30:00,73.1,68.0,29.76,South,173,9.0,14.0,84,0.00,,,0.00,VWS V13.01,2013-04-17 13:30:00,
2013-04-17 08:34:00,73.1,68.0,29.76,South,180,0.0,13.0,84,0.00,,,0.00,VWS V13.01,2013-04-17 13:34:00,
2013-04-17 08:39:00,73.1,68.0,29.76,SSE,159,1.0,14.0,84,0.00,,,0.00,VWS V13.01,2013-04-17 13:39:00,
2013-04-17 08:40:00,73.2,67.7,29.76,SSE,153,6.0,17.0,83,0.00,,,0.00,VWS V13.01,2013-04-17 13:40:00,
2013-04-17 08:44:00,73.2,67.7,29.76,South,191,0.0,15.0,83,0.00,,,0.00,VWS V13.01,2013-04-17 13:44:00,
2013-04-17 08:49:00,73.3,67.8,29.76,SSW,203,4.0,16.0,83,0.00,,,0.00,VWS V13.01,2013-04-17 13:49:00,
2013-04-17 08:50:00,73.3,67.8,29.76,SE,134,6.0,16.0,83,0.00,,,0.00,VWS V13.01,2013-04-17 13:50:00,
2013-04-17 08:54:00,73.4,67.9,29.76,SSE,151,8.0,16.0,83,0.00,,,0.00,VWS V13.01,2013-04-17 13:54:00,
2013-04-17 08:59:00,73.5,68.0,29.76,SE,140,11.0,19.0,83,0.00,,,0.00,VWS V13.01,2013-04-17 13:59:00,
2013-04-17 09:00:00,73.5,67.7,29.77,South,183,6.0,19.0,82,0.00,,,0.00,VWS V13.01,2013-04-17 14:00:00,
2013-04-17 09:04:00,73.5,67.7,29.77,South,172,4.0,13.0,82,0.00,,,0.00,VWS V13.01,2013-04-17 14:04:00,
2013-04-17 09:09:00,73.6,67.8,29.77,SE,136,10.0,17.0,82,0.00,,,0.00,VWS V13.01,2013-04-17 14:09:00,
2013-04-17 09:10:00,73.6,67.8,29.77,SSE,160,9.0,17.0,82,0.00,,,0.00,VWS V13.01,2013-04-17 14:10:00,
2013-04-17 09:14:00,73.7,67.9,29.77,SE,126,8.0,16.0,82,0.00,,,0.00,VWS V13.01,2013-04-17 14:14:00,
2013-04-17 09:19:00,74.0,68.2,29.76,SE,145,12.0,18.0,82,0.00,,,0.00,VWS V13.01,2013-04-17 14:19:00,
2013-04-17 09:20:00,74.0,68.2,29.76,SE,132,8.0,18.0,82,0.00,,,0.00,VWS V13.01,2013-04-17 14:20:00,
2013-04-17 09:24:00,74.0,67.8,29.76,SSW,194,0.0,15.0,81,0.00,,,0.00,VWS V13.01,2013-04-17 14:24:00,
2013-04-17 09:29:00,74.0,67.8,29.76,SSW,205,11.0,17.0,81,0.00,,,0.00,VWS V13.01,2013-04-17 14:29:00,
2013-04-17 09:30:00,73.9,67.7,29.76,South,170,2.0,17.0,81,0.00,,,0.00,VWS V13.01,2013-04-17 14:30:00,
2013-04-17 09:34:00,74.0,68.2,29.76,SSW,193,0.0,19.0,82,0.00,,,0.00,VWS V13.01,2013-04-17 14:34:00,
2013-04-17 09:39:00,74.1,67.9,29.76,SSE,156,10.0,19.0,81,0.00,,,0.00,VWS V13.01,2013-04-17 14:39:00,
2013-04-17 09:40:00,74.1,67.9,29.76,SSE,168,6.0,19.0,81,0.00,,,0.00,VWS V13.01,2013-04-17 14:40:00,
2013-04-17 09:44:00,74.2,68.0,29.76,South,170,0.0,12.0,81,0.00,,,0.00,VWS V13.01,2013-04-17 14:44:00,
2013-04-17 09:49:00,74.3,67.7,29.76,SSE,161,3.0,18.0,80,0.00,,,0.00,VWS V13.01,2013-04-17 14:49:00,
2013-04-17 09:50:00,74.3,67.7,29.76,SSW,194,5.0,18.0,80,0.00,,,0.00,VWS V13.01,2013-04-17 14:50:00,
2013-04-17 09:54:00,74.4,67.8,29.76,South,171,1.0,18.0,80,0.00,,,0.00,VWS V13.01,2013-04-17 14:54:00,
2013-04-17 09:59:00,74.8,68.2,29.76,South,181,0.0,18.0,80,0.00,,,0.00,VWS V13.01,2013-04-17 14:59:00,
2013-04-17 10:00:00,74.9,67.9,29.76,SSE,155,0.0,18.0,79,0.00,,,0.00,VWS V13.01,2013-04-17 15:00:00,
2013-04-17 10:05:00,74.9,67.9,29.76,SSE,155,7.0,21.0,79,0.00,,,0.00,VWS V13.01,2013-04-17 15:05:00,
2013-04-17 10:10:00,75.1,68.2,29.76,SSW,199,11.0,21.0,79,0.00,,,0.00,VWS V13.01,2013-04-17 15:10:00,
2013-04-17 10:15:00,75.2,67.9,29.76,SSE,147,3.0,16.0,78,0.00,,,0.00,VWS V13.01,2013-04-17 15:15:00,
2013-04-17 10:20:00,75.6,67.9,29.75,SSW,195,12.0,18.0,77,0.00,,,0.00,VWS V13.01,2013-04-17 15:20:00,
2013-04-17 10:25:00,76.2,68.1,29.75,South,170,2.0,16.0,76,0.00,,,0.00,VWS V13.01,2013-04-17 15:25:00,
2013-04-17 10:30:00,76.3,68.2,29.75,SW,221,12.0,16.0,76,0.00,,,0.00,VWS V13.01,2013-04-17 15:30:00,
2013-04-17 10:35:00,76.3,68.6,29.75,South,174,6.0,13.0,77,0.00,,,0.00,VWS V13.01,2013-04-17 15:35:00,
2013-04-17 10:40:00,76.4,68.3,29.75,SSE,157,6.0,16.0,76,0.00,,,0.00,VWS V13.01,2013-04-17 15:40:00,
2013-04-17 10:45:00,76.5,68.4,29.75,SE,139,9.0,22.0,76,0.00,,,0.00,VWS V13.01,2013-04-17 15:45:00,
2013-04-17 10:50:00,76.7,68.2,29.75,SSE,162,3.0,22.0,75,0.00,,,0.00,VWS V13.01,2013-04-17 15:50:00,
2013-04-17 10:55:00,76.6,68.1,29.75,SSW,199,3.0,16.0,75,0.00,,,0.00,VWS V13.01,2013-04-17 15:55:00,
2013-04-17 11:00:00,76.7,68.2,29.75,SE,140,12.0,19.0,75,0.00,,,0.00,VWS V13.01,2013-04-17 16:00:00,
2013-04-17 11:05:00,76.8,67.9,29.74,South,190,7.0,20.0,74,0.00,,,0.00,VWS V13.01,2013-04-17 16:05:00,
2013-04-17 11:10:00,77.0,68.1,29.74,SSW,202,1.0,20.0,74,0.00,,,0.00,VWS V13.01,2013-04-17 16:10:00,
2013-04-17 11:15:00,77.4,68.1,29.74,SSW,207,11.0,18.0,73,0.00,,,0.00,VWS V13.01,2013-04-17 16:15:00,
2013-04-17 11:20:00,77.9,68.2,29.74,South,178,2.0,19.0,72,0.00,,,0.00,VWS V13.01,2013-04-17 16:20:00,
2013-04-17 11:25:00,77.9,67.8,29.74,SSE,161,6.0,16.0,71,0.00,,,0.00,VWS V13.01,2013-04-17 16:25:00,
2013-04-17 11:30:00,78.4,68.6,29.73,South,188,10.0,16.0,72,0.00,,,0.00,VWS V13.01,2013-04-17 16:30:00,
2013-04-17 11:35:00,78.5,68.3,29.73,South,175,22.0,22.0,71,0.00,,,0.00,VWS V13.01,2013-04-17 16:35:00,
2013-04-17 11:40:00,78.7,68.5,29.73,SSW,192,13.0,22.0,71,0.00,,,0.00,VWS V13.01,2013-04-17 16:40:00,
2013-04-17 11:45:00,78.7,68.1,29.73,South,176,3.0,18.0,70,0.00,,,0.00,VWS V13.01,2013-04-17 16:45:00,
2013-04-17 11:50:00,79.1,68.1,29.73,South,170,6.0,19.0,69,0.00,,,0.00,VWS V13.01,2013-04-17 16:50:00,
2013-04-17 11:55:00,79.5,68.4,29.73,South,191,2.0,18.0,69,0.00,,,0.00,VWS V13.01,2013-04-17 16:55:00,
2013-04-17 12:00:00,79.6,68.1,29.73,South,181,17.0,19.0,68,0.00,,,0.00,VWS V13.01,2013-04-17 17:00:00,
2013-04-17 12:05:00,79.1,68.5,29.73,South,173,2.0,18.0,70,0.00,,,0.00,VWS V13.01,2013-04-17 17:05:00,
2013-04-17 12:10:00,79.8,68.7,29.73,SSE,148,6.0,20.0,69,0.00,,,0.00,VWS V13.01,2013-04-17 17:10:00,
2013-04-17 12:15:00,79.6,68.1,29.73,South,182,7.0,17.0,68,0.00,,,0.00,VWS V13.01,2013-04-17 17:15:00,
2013-04-17 12:20:00,79.6,68.1,29.73,SSE,163,8.0,17.0,68,0.00,,,0.00,VWS V13.01,2013-04-17 17:20:00,
2013-04-17 12:25:00,79.7,68.2,29.73,South,186,9.0,25.0,68,0.00,,,0.00,VWS V13.01,2013-04-17 17:25:00,
2013-04-17 12:30:00,80.1,68.2,29.72,SE,138,10.0,25.0,67,0.00,,,0.00,VWS V13.01,2013-04-17 17:30:00,
2013-04-17 12:35:00,80.0,68.5,29.72,SSE,157,1.0,15.0,68,0.00,,,0.00,VWS V13.01,2013-04-17 17:35:00,
2013-04-17 12:40:00,80.7,68.7,29.72,SSW,200,13.0,16.0,67,0.00,,,0.00,VWS V13.01,2013-04-17 17:40:00,
2013-04-17 12:45:00,80.4,68.4,29.71,South,183,11.0,20.0,67,0.00,,,0.00,VWS V13.01,2013-04-17 17:45:00,
2013-04-17 12:50:00,80.5,68.1,29.71,SW,216,9.0,22.0,66,0.00,,,0.00,VWS V13.01,2013-04-17 17:50:00,
2013-04-17 12:55:00,80.7,68.7,29.71,South,188,6.0,20.0,67,0.00,,,0.00,VWS V13.01,2013-04-17 17:55:00,
2013-04-17 13:00:00,80.5,68.5,29.71,SSW,200,14.0,20.0,67,0.00,,,0.00,VWS V13.01,2013-04-17 18:00:00,
2013-04-17 13:05:00,80.5,68.1,29.71,SSW,192,7.0,17.0,66,0.00,,,0.00,VWS V13.01,2013-04-17 18:05:00,
2013-04-17 13:10:00,80.2,67.8,29.71,SSE,155,11.0,17.0,66,0.00,,,0.00,VWS V13.01,2013-04-17 18:10:00,
2013-04-17 13:15:00,80.4,68.0,29.70,South,191,7.0,19.0,66,0.00,,,0.00,VWS V13.01,2013-04-17 18:15:00,
2013-04-17 13:20:00,80.8,68.4,29.70,SSE,167,13.0,24.0,66,0.00,,,0.00,VWS V13.01,2013-04-17 18:20:00,
2013-04-17 13:25:00,81.0,68.1,29.70,SSE,160,14.0,26.0,65,0.00,,,0.00,VWS V13.01,2013-04-17 18:25:00,
2013-04-17 13:30:00,81.3,68.9,29.69,SSW,194,0.0,26.0,66,0.00,,,0.00,VWS V13.01,2013-04-17 18:30:00,
2013-04-17 13:35:00,82.1,68.3,29.69,SE,129,11.0,24.0,63,0.00,,,0.00,VWS V13.01,2013-04-17 18:35:00,
2013-04-17 13:40:00,81.5,68.2,29.69,SE,138,5.0,24.0,64,0.00,,,0.00,VWS V13.01,2013-04-17 18:40:00,
2013-04-17 13:45:00,81.8,68.4,29.68,South,171,3.0,16.0,64,0.00,,,0.00,VWS V13.01,2013-04-17 18:45:00,
2013-04-17 13:50:00,81.7,68.8,29.68,South,173,6.0,18.0,65,0.00,,,0.00,VWS V13.01,2013-04-17 18:50:00,
2013-04-17 13:55:00,81.6,68.2,29.68,South,176,12.0,19.0,64,0.00,,,0.00,VWS V13.01,2013-04-17 18:55:00,
2013-04-17 14:00:00,81.6,68.2,29.68,SE,140,6.0,19.0,64,0.00,,,0.00,VWS V13.01,2013-04-17 19:00:00,
2013-04-17 14:05:00,81.8,68.0,29.68,SE,127,16.0,22.0,63,0.00,,,0.00,VWS V13.01,2013-04-17 19:05:00,
2013-04-17 14:10:00,81.8,68.0,29.68,SSE,148,10.0,25.0,63,0.00,,,0.00,VWS V13.01,2013-04-17 19:10:00,
2013-04-17 14:15:00,81.6,68.2,29.67,South,170,0.0,20.0,64,0.00,,,0.00,VWS V13.01,2013-04-17 19:15:00,
2013-04-17 14:20:00,82.4,68.6,29.67,SW,217,14.0,20.0,63,0.00,,,0.00,VWS V13.01,2013-04-17 19:20:00,
2013-04-17 14:25:00,82.9,68.6,29.67,SSE,153,2.0,18.0,62,0.00,,,0.00,VWS V13.01,2013-04-17 19:25:00,
2013-04-17 14:30:00,82.4,68.6,29.66,South,187,17.0,22.0,63,0.00,,,0.00,VWS V13.01,2013-04-17 19:30:00,
2013-04-17 14:35:00,82.5,68.2,29.66,South,169,4.0,21.0,62,0.00,,,0.00,VWS V13.01,2013-04-17 19:35:00,
2013-04-17 14:40:00,82.4,69.0,29.66,South,169,9.0,21.0,64,0.00,,,0.00,VWS V13.01,2013-04-17 19:40:00,
2013-04-17 14:46:00,81.8,68.4,29.65,South,183,2.0,15.0,64,0.00,,,0.00,VWS V13.01,2013-04-17 19:46:00,
2013-04-17 14:50:00,81.6,68.2,29.65,SE,133,13.0,18.0,64,0.00,,,0.00,VWS V13.01,2013-04-17 19:50:00,
2013-04-17 14:51:00,81.6,68.2,29.65,South,185,4.0,18.0,64,0.00,,,0.00,VWS V13.01,2013-04-17 19:51:00,
2013-04-17 14:56:00,81.3,68.0,29.65,SE,141,5.0,20.0,64,0.00,,,0.00,VWS V13.01,2013-04-17 19:56:00,
2013-04-17 15:00:00,81.4,68.5,29.64,South,183,10.0,21.0,65,0.00,,,0.00,VWS V13.01,2013-04-17 20:00:00,
2013-04-17 15:01:00,81.4,68.5,29.64,SSW,209,12.0,21.0,65,0.00,,,0.00,VWS V13.01,2013-04-17 20:01:00,
2013-04-17 15:06:00,81.5,68.6,29.64,SSE,147,8.0,15.0,65,0.00,,,0.00,VWS V13.01,2013-04-17 20:06:00,
2013-04-17 15:10:00,81.8,68.9,29.64,SSW,193,1.0,15.0,65,0.00,,,0.00,VWS V13.01,2013-04-17 20:10:00,
2013-04-17 15:11:00,81.8,68.9,29.64,South,186,9.0,15.0,65,0.00,,,0.00,VWS V13.01,2013-04-17 20:11:00,
2013-04-17 15:16:00,81.9,69.0,29.63,SSW,210,18.0,20.0,65,0.00,,,0.00,VWS V13.01,2013-04-17 20:16:00,
2013-04-17 15:20:00,81.5,69.1,29.63,South,188,13.0,20.0,66,0.00,,,0.00,VWS V13.01,2013-04-17 20:20:00,
2013-04-17 15:21:00,81.5,69.1,29.63,SSW,204,9.0,20.0,66,0.00,,,0.00,VWS V13.01,2013-04-17 20:21:00,
2013-04-17 15:26:00,81.1,68.7,29.63,SE,130,11.0,21.0,66,0.00,,,0.00,VWS V13.01,2013-04-17 20:26:00,
2013-04-17 15:30:00,81.1,69.1,29.63,South,171,3.0,21.0,67,0.00,,,0.00,VWS V13.01,2013-04-17 20:30:00,
2013-04-17 15:31:00,81.1,69.1,29.63,South,186,6.0,21.0,67,0.00,,,0.00,VWS V13.01,2013-04-17 20:31:00,
2013-04-17 15:36:00,81.2,69.6,29.63,South,186,8.0,21.0,68,0.00,,,0.00,VWS V13.01,2013-04-17 20:36:00,
2013-04-17 15:40:00,81.0,69.0,29.63,SSE,164,6.0,21.0,67,0.00,,,0.00,VWS V13.01,2013-04-17 20:40:00,
2013-04-17 15:41:00,81.0,69.4,29.63,SSE,150,12.0,19.0,68,0.00,,,0.00,VWS V13.01,2013-04-17 20:41:00,
2013-04-17 15:46:00,80.7,69.2,29.62,SSE,150,12.0,20.0,68,0.00,,,0.00,VWS V13.01,2013-04-17 20:46:00,
2013-04-17 15:50:00,80.3,69.2,29.62,South,169,1.0,24.0,69,0.00,,,0.00,VWS V13.01,2013-04-17 20:50:00,
2013-04-17 15:51:00,80.3,69.2,29.62,SSW,206,5.0,7.0,69,0.00,,,0.00,VWS V13.01,2013-04-17 20:51:00,
2013-04-17 15:56:00,79.9,69.2,29.62,SE,134,4.0,19.0,70,0.00,,,0.00,VWS V13.01,2013-04-17 20:56:00,
2013-04-17 16:00:00,79.8,69.2,29.62,SSE,163,1.0,21.0,70,0.00,,,0.00,VWS V13.01,2013-04-17 21:00:00,
2013-04-17 16:02:00,79.8,69.2,29.62,SSE,163,1.0,21.0,70,0.00,,,0.00,VWS V13.01,2013-04-17 21:02:00,
2013-04-17 16:07:00,79.7,69.5,29.62,ESE,121,5.0,16.0,71,0.00,,,0.00,VWS V13.01,2013-04-17 21:07:00,
2013-04-17 16:10:00,79.5,69.3,29.62,SSE,153,10.0,19.0,71,0.00,,,0.00,VWS V13.01,2013-04-17 21:10:00,
2013-04-17 16:12:00,79.4,69.2,29.62,SE,132,5.0,17.0,71,0.00,,,0.00,VWS V13.01,2013-04-17 21:12:00,
2013-04-17 16:17:00,79.1,69.3,29.62,ESE,119,14.0,23.0,72,0.00,,,0.00,VWS V13.01,2013-04-17 21:17:00,
2013-04-17 16:20:00,78.7,69.3,29.62,SE,131,10.0,23.0,73,0.00,,,0.00,VWS V13.01,2013-04-17 21:20:00,
2013-04-17 16:22:00,78.7,69.3,29.62,SSE,148,9.0,13.0,73,0.00,,,0.00,VWS V13.01,2013-04-17 21:22:00,
2013-04-17 16:27:00,78.2,69.2,29.62,South,190,7.0,17.0,74,0.00,,,0.00,VWS V13.01,2013-04-17 21:27:00,
2013-04-17 16:30:00,77.9,69.3,29.62,SSE,149,14.0,23.0,75,0.00,,,0.00,VWS V13.01,2013-04-17 21:30:00,
2013-04-17 16:32:00,77.8,69.2,29.62,SSW,208,7.0,16.0,75,0.00,,,0.00,VWS V13.01,2013-04-17 21:32:00,
2013-04-17 16:37:00,77.5,69.3,29.62,SSE,167,7.0,20.0,76,0.00,,,0.00,VWS V13.01,2013-04-17 21:37:00,
2013-04-17 16:40:00,81.0,69.0,29.63,SSE,164,6.0,21.0,67,0.00,,,0.00,VWS V15.00,2013-04-17 21:40:00,
2013-04-17 16:42:00,77.2,69.4,29.62,SSW,196,11.0,18.0,77,0.00,,,0.00,VWS V13.01,2013-04-17 21:42:00,
2013-04-17 16:47:00,77.1,69.3,29.62,SSE,168,2.0,18.0,77,0.00,,,0.00,VWS V13.01,2013-04-17 21:47:00,
2013-04-17 16:50:00,77.0,69.2,29.62,South,184,2.0,18.0,77,0.00,,,0.00,VWS V13.01,2013-04-17 21:50:00,
2013-04-17 16:52:00,77.1,69.3,29.62,SSW,196,4.0,18.0,77,0.00,,,0.00,VWS V13.01,2013-04-17 21:52:00,
2013-04-17 16:57:00,77.0,69.6,29.62,SSW,207,12.0,18.0,78,0.00,,,0.00,VWS V13.01,2013-04-17 21:57:00,
2013-04-17 17:00:00,76.9,69.5,29.61,South,183,3.0,18.0,78,0.00,,,0.00,VWS V13.01,2013-04-17 22:00:00,
2013-04-17 17:02:00,76.9,69.5,29.61,SSE,160,6.0,8.0,78,0.00,,,0.00,VWS V13.01,2013-04-17 22:02:00,
2013-04-17 17:07:00,76.7,69.7,29.61,SSW,194,0.0,16.0,79,0.00,,,0.00,VWS V13.01,2013-04-17 22:07:00,
2013-04-17 17:10:00,76.6,69.6,29.61,SE,140,3.0,16.0,79,0.00,,,0.00,VWS V13.01,2013-04-17 22:10:00,
2013-04-17 17:12:00,76.6,69.6,29.61,SSW,202,0.0,9.0,79,0.00,,,0.00,VWS V13.01,2013-04-17 22:12:00,
2013-04-17 17:17:00,76.5,69.5,29.60,South,182,9.0,17.0,79,0.00,,,0.00,VWS V13.01,2013-04-17 22:17:00,
2013-04-17 17:20:00,76.7,69.7,29.60,SSE,148,15.0,17.0,79,0.00,,,0.00,VWS V13.01,2013-04-17 22:20:00,
2013-04-17 17:22:00,76.7,69.7,29.60,SSE,148,3.0,15.0,79,0.00,,,0.00,VWS V13.01,2013-04-17 22:22:00,
2013-04-17 17:27:00,76.7,69.7,29.60,South,172,1.0,15.0,79,0.00,,,0.00,VWS V13.01,2013-04-17 22:27:00,
2013-04-17 17:30:00,76.6,69.6,29.60,SSE,165,0.0,15.0,79,0.00,,,0.00,VWS V13.01,2013-04-17 22:30:00,
2013-04-17 17:32:00,76.6,69.6,29.60,SSE,167,0.0,7.0,79,0.00,,,0.00,VWS V13.01,2013-04-17 22:32:00,
2013-04-17 17:37:00,76.6,69.6,29.60,SSE,156,5.0,12.0,79,0.00,,,0.00,VWS V13.01,2013-04-17 22:37:00,
2013-04-17 17:40:00,76.6,69.6,29.60,SSE,165,1.0,12.0,79,0.00,,,0.00,VWS V13.01,2013-04-17 22:40:00,
2013-04-17 17:42:00,76.6,69.6,29.60,SSE,165,0.0,1.0,79,0.00,,,0.00,VWS V13.01,2013-04-17 22:42:00,
2013-04-17 17:47:00,76.6,70.0,29.60,SSE,167,2.0,12.0,80,0.00,,,0.00,VWS V13.01,2013-04-17 22:47:00,
2013-04-17 17:50:00,76.6,70.0,29.60,SSE,165,5.0,12.0,80,0.00,,,0.00,VWS V13.01,2013-04-17 22:50:00,
2013-04-17 17:52:00,76.6,70.0,29.60,SSE,163,0.0,10.0,80,0.00,,,0.00,VWS V13.01,2013-04-17 22:52:00,
2013-04-17 17:57:00,76.5,69.9,29.60,SSE,162,5.0,10.0,80,0.00,,,0.00,VWS V13.01,2013-04-17 22:57:00,
2013-04-17 18:00:00,76.5,69.9,29.61,SSE,161,0.0,10.0,80,0.00,,,0.00,VWS V13.01,2013-04-17 23:00:00,
2013-04-17 18:02:00,76.5,69.9,29.61,SSE,161,0.0,7.0,80,0.00,,,0.00,VWS V13.01,2013-04-17 23:02:00,
2013-04-17 18:07:00,76.6,70.0,29.61,SSE,161,8.0,9.0,80,0.00,,,0.00,VWS V13.01,2013-04-17 23:07:00,
2013-04-17 18:10:00,76.6,70.0,29.61,SSE,149,12.0,12.0,80,0.00,,,0.00,VWS V13.01,2013-04-17 23:10:00,
2013-04-17 18:12:00,76.7,70.1,29.61,South,173,5.0,12.0,80,0.00,,,0.00,VWS V13.01,2013-04-17 23:12:00,
2013-04-17 18:17:00,76.7,70.1,29.60,SSE,154,0.0,13.0,80,0.00,,,0.00,VWS V13.01,2013-04-17 23:17:00,
2013-04-17 18:20:00,76.7,70.1,29.60,SSE,160,3.0,13.0,80,0.00,,,0.00,VWS V13.01,2013-04-17 23:20:00,
2013-04-17 18:30:00,76.6,69.6,29.60,SSE,165,0.0,15.0,79,0.00,,,0.00,VWS V15.00,2013-04-17 23:30:00,
2013-04-17 18:40:00,76.6,69.6,29.60,SSE,165,1.0,12.0,79,0.00,,,0.00,VWS V15.00,2013-04-17 23:40:00,
2013-04-17 18:50:00,76.6,70.0,29.60,SSE,165,5.0,12.0,80,0.00,,,0.00,VWS V15.00,2013-04-17 23:50:00,
2013-04-17 19:00:00,76.5,69.9,29.61,SSE,161,0.0,10.0,80,0.00,,,0.00,VWS V15.00,2013-04-18 00:00:00,
2013-04-17 19:10:00,76.6,70.0,29.61,SSE,149,12.0,12.0,80,0.00,,,0.00,VWS V15.00,2013-04-18 00:10:00,
2013-04-17 19:20:00,76.7,70.1,29.60,SSE,160,3.0,13.0,80,0.00,,,0.00,VWS V15.00,2013-04-18 00:20:00,